Flag for Germany Weather past 2 weeks in Herten, North Rhine-Westphalia, Germany

Now
52 °F

Partly sunny.


Feels Like: 50 °F
Forecast: 45 / 66 °F
Wind: 6 mph from Southwest

Location: Essen

Current Time: May 30, 2015 at 11:14:37 AM

Latest Report: May 30, 2015 at 10:00 AM


Visibility: 19 mi

Pressure: 29.90 "Hg

Humidity: 71%

Dew point: 43 °F

Location of HertenLocation

Historic Weather in Herten — Graph

°F

Herten temperature yesterday

Maximum temperature yesterday: 60 °F (at 5:00 PM)
Minimum temperature yesterday: 47 °F (at 11:00 PM)
Average temperature yesterday: 54 °F

Past Weeks' High & Low Weather Summary

 TemperatureHumidityPressure
High67 °F (May 22, 4:00 PM)100% (May 16, 4:00 PM)30.34 "Hg (May 16, 4:00 PM)
Low42 °F (May 16, 6:00 AM)42% (May 22, 5:00 PM)29.64 "Hg (May 18, 9:00 PM)
Average54 °F72%30.06 "Hg
* Reported May 15 10:00 AM — May 30 10:00 AM, Herten, Weather by CustomWeather, © 2015

Note: Actual official high and low records may vary slightly from our data, if they occured in-between our weather recording intervals... More about our weather records

Advertising

Herten weather history for previous 24 hours

 ConditionsComfort  
Time TempWeatherWind HumidityBarometerVisibility
10:00 AM
Sat, May 30
52 °FPartly sunny.6 mph71%29.90 "Hg19 mi
9:00 AM50 °FPartly sunny.5 mph89%29.89 "Hg9 mi
8:00 AM48 °FPartly sunny.5 mph94%29.88 "Hg6 mi
7:00 AM47 °FPassing clouds.3 mph94%29.87 "Hg7 mi
6:00 AM47 °FFog.3 mph100%29.85 "Hg3 mi
5:00 AM47 °FFog.3 mph100%29.83 "Hg3 mi
4:00 AM48 °FFog.5 mph100%29.82 "Hg4 mi
3:00 AM48 °FLow clouds.3 mph100%29.80 "Hg6 mi
2:00 AM47 °FLow clouds.3 mph100%29.80 "Hg9 mi
1:00 AM47 °FOvercast.5 mph97%29.79 "Hg25 mi
12:00 AM46 °FLight rain. Low clouds.5 mph99%29.79 "Hg7 mi
11:00 PM
Fri, May 29
47 °FRain. Low clouds.5 mph97%29.79 "Hg2 mi
10:00 PM54 °FLight rain. Low clouds.5 mph74%29.76 "Hg19 mi
9:00 PM56 °FLight rain. Overcast.6 mph65%29.75 "Hg16 mi
8:00 PM57 °FOvercast.6 mph58%29.75 "Hg31 mi
7:00 PM59 °FOvercast.7 mph53%29.74 "Hg34 mi
6:00 PM60 °FOvercast.6 mph50%29.74 "Hg25 mi
5:00 PM60 °FOvercast.7 mph55%29.75 "Hg22 mi
4:00 PM60 °FOvercast.7 mph56%29.77 "Hg22 mi
3:00 PM58 °FOvercast.8 mph58%29.79 "Hg22 mi
2:00 PM57 °FOvercast.7 mph58%29.80 "Hg22 mi
1:00 PM57 °FOvercast.7 mph58%29.83 "Hg25 mi
12:00 PM57 °FOvercast.6 mph59%29.85 "Hg19 mi
11:00 AM54 °FOvercast.5 mph78%29.87 "Hg13 mi
Weather by CustomWeather, © 2015

See weather overviewHow to use our weather pages